| time (UTC) | temp F | wind direction | speed MPH | gust MPH | rain 1hr in | rain 24hr in | rain mn in | humidity % | barometer mb |
| 20260510013005 | 61 | 304 | 6.0 | 10.0 | 0.00 | 0.00 | 0.00 | 100 | 1012.5 |
| 20260510012005 | 62 | 311 | 9.0 | 12.0 | 0.00 | 0.00 | 0.00 | 100 | 1012.3 |
| 20260510011505 | 63 | 314 | 9.0 | 12.0 | 0.00 | 0.00 | 0.00 | 100 | 1012.1 |
| 20260510011006 | 63 | 319 | 7.0 | 12.0 | 0.00 | 0.00 | 0.00 | 100 | 1011.9 |
| 20260510010006 | 64 | 323 | 7.0 | 12.0 | 0.00 | 0.00 | 0.00 | 100 | 1011.7 |
| 20260510005505 | 64 | 319 | 9.0 | 12.0 | 0.00 | 0.00 | 0.00 | 100 | 1011.9 |
| 20260510005005 | 64 | 315 | 9.0 | 14.0 | 0.00 | 0.00 | 0.00 | 100 | 1011.7 |
| 20260510004005 | 65 | 320 | 10.0 | 14.0 | 0.00 | 0.00 | 0.00 | 100 | 1011.5 |
| 20260510003505 | 65 | 314 | 7.0 | 14.0 | 0.00 | 0.00 | 0.00 | 100 | 1011.3 |
| 20260510002005 | 66 | 319 | 11.0 | 20.0 | 0.00 | 0.00 | 0.00 | 100 | 1011.2 |
| 20260510001505 | 66 | 303 | 14.0 | 20.0 | 0.00 | 0.00 | 0.00 | 100 | 1011.1 |
| 20260510001005 | 67 | 303 | 13.0 | 20.0 | 0.00 | 0.00 | 0.00 | 100 | 1011.0 |
| 20260510000505 | 67 | 313 | 12.0 | 20.0 | 0.00 | 0.00 | 0.00 | 100 | 1010.7 |
| 20260510000005 | 67 | 325 | 15.0 | 23.0 | 0.00 | 0.00 | 0.00 | 100 | 1010.8 |
| 20260509235006 | 67 | 301 | 13.0 | 20.0 | 0.00 | 0.00 | 0.00 | 100 | 1010.7 |
| 20260509234005 | 67 | 317 | 13.0 | 18.0 | 0.00 | 0.00 | 0.00 | 100 | 1010.4 |
| 20260509232505 | 69 | 303 | 15.0 | 23.0 | 0.00 | 0.00 | 0.00 | 100 | 1010.4 |
| 20260509230005 | 70 | 299 | 14.0 | 23.0 | 0.00 | 0.00 | 0.00 | 100 | 1009.8 |
| 20260509225505 | 71 | 306 | 14.0 | 21.0 | 0.00 | 0.00 | 0.00 | 100 | 1009.7 |
| 20260509223505 | 71 | 306 | 18.0 | 26.0 | 0.00 | 0.00 | 0.00 | 100 | 1009.4 |
| 20260509223005 | 72 | 317 | 17.0 | 23.0 | 0.00 | 0.00 | 0.00 | 100 | 1009.4 |
| 20260509221506 | 72 | 313 | 18.0 | 23.0 | 0.00 | 0.00 | 0.00 | 100 | 1009.0 |
| 20260509220005 | 73 | 286 | 12.0 | 20.0 | 0.00 | 0.00 | 0.00 | 100 | 1008.8 |
| 20260509215005 | 73 | 315 | 18.0 | 25.0 | 0.00 | 0.00 | 0.00 | 100 | 1008.8 |
| 20260509214505 | 72 | 286 | 11.0 | 25.0 | 0.00 | 0.00 | 0.00 | 100 | 1008.9 |
| 20260509214006 | 72 | 286 | 22.0 | 31.0 | 0.00 | 0.00 | 0.00 | 100 | 1008.8 |
| 20260509213505 | 72 | 301 | 21.0 | 26.0 | 0.00 | 0.00 | 0.00 | 100 | 1008.9 |
| 20260509213006 | 72 | 271 | 17.0 | 21.0 | 0.00 | 0.00 | 0.00 | 100 | 1008.8 |
| 20260509212005 | 72 | 279 | 16.0 | 20.0 | 0.00 | 0.00 | 0.00 | 100 | 1008.8 |
| 20260509204505 | 70 | 275 | 15.0 | 22.0 | 0.00 | 0.00 | 0.00 | 100 | 1008.7 |
| 20260509204005 | 71 | 257 | 14.0 | 21.0 | 0.00 | 0.00 | 0.00 | 100 | 1008.8 |
| 20260509203505 | 72 | 258 | 17.0 | 28.0 | 0.00 | 0.00 | 0.00 | 100 | 1008.9 |
| 20260509203005 | 72 | 264 | 15.0 | 22.0 | 0.00 | 0.00 | 0.00 | 100 | 1008.8 |
| 20260509202505 | 73 | 257 | 16.0 | 22.0 | 0.00 | 0.00 | 0.00 | 100 | 1008.8 |
| 20260509201505 | 71 | 272 | 16.0 | 23.0 | 0.00 | 0.00 | 0.00 | 100 | 1009.0 |
| 20260509195004 | 67 | 265 | 10.0 | 17.0 | 0.00 | 0.00 | 0.00 | 100 | 1008.8 |
| 20260509194505 | 67 | 270 | 14.0 | 17.0 | 0.00 | 0.00 | 0.00 | 100 | 1008.8 |
| 20260509193005 | 69 | 261 | 14.0 | 20.0 | 0.00 | 0.00 | 0.00 | 100 | 1008.7 |
| 20260509192004 | 69 | 274 | 13.0 | 23.0 | 0.00 | 0.00 | 0.00 | 100 | 1008.7 |
| 20260509191005 | 71 | 277 | 15.0 | 25.0 | 0.00 | 0.00 | 0.00 | 100 | 1008.6 |
| 20260509190006 | 71 | 282 | 21.0 | 29.0 | 0.00 | 0.00 | 0.00 | 100 | 1008.4 |
| 20260509185005 | 71 | 305 | 20.0 | 26.0 | 0.00 | 0.00 | 0.00 | 100 | 1008.1 |
| 20260509184505 | 70 | 277 | 24.0 | 31.0 | 0.00 | 0.00 | 0.00 | 100 | 1008.1 |
| 20260509182505 | 70 | 299 | 16.0 | 29.0 | 0.00 | 0.00 | 0.00 | 100 | 1008.1 |
| 20260509182005 | 71 | 292 | 16.0 | 26.0 | 0.00 | 0.00 | 0.00 | 100 | 1008.0 |
| 20260509181505 | 71 | 293 | 17.0 | 23.0 | 0.00 | 0.00 | 0.00 | 100 | 1007.8 |
| 20260509181005 | 72 | 282 | 17.0 | 28.0 | 0.00 | 0.00 | 0.00 | 100 | 1007.7 |
| 20260509180005 | 72 | 298 | 16.0 | 21.0 | 0.00 | 0.00 | 0.00 | 100 | 1007.7 |
| 20260509175505 | 71 | 295 | 16.0 | 22.0 | 0.00 | 0.00 | 0.00 | 100 | 1007.7 |
| 20260509175004 | 70 | 283 | 15.0 | 21.0 | 0.00 | 0.00 | 0.00 | 100 | 1007.6 |
| 20260509174504 | 70 | 300 | 17.0 | 23.0 | 0.00 | 0.00 | 0.00 | 100 | 1007.8 |
| 20260509174004 | 70 | 270 | 13.0 | 20.0 | 0.00 | 0.00 | 0.00 | 100 | 1007.6 |
| 20260509173505 | 71 | 276 | 15.0 | 20.0 | 0.00 | 0.00 | 0.00 | 100 | 1007.6 |
| 20260509171504 | 72 | 270 | 18.0 | 29.0 | 0.00 | 0.00 | 0.00 | 100 | 1007.8 |
| 20260509171004 | 72 | 292 | 17.0 | 28.0 | 0.00 | 0.00 | 0.00 | 100 | 1007.8 |
| 20260509170504 | 73 | 287 | 17.0 | 28.0 | 0.00 | 0.00 | 0.00 | 100 | 1007.8 |
| 20260509170004 | 73 | 282 | 14.0 | 28.0 | 0.00 | 0.00 | 0.00 | 100 | 1007.8 |
| 20260509165504 | 74 | 271 | 21.0 | 31.0 | 0.00 | 0.00 | 0.00 | 100 | 1007.8 |
| 20260509165005 | 74 | 274 | 21.0 | 32.0 | 0.00 | 0.00 | 0.00 | 100 | 1007.8 |
| 20260509164505 | 74 | 291 | 20.0 | 25.0 | 0.00 | 0.00 | 0.00 | 100 | 1007.7 |
| 20260509164004 | 73 | 284 | 18.0 | 28.0 | 0.00 | 0.00 | 0.00 | 100 | 1007.8 |
| 20260509163504 | 73 | 250 | 16.0 | 22.0 | 0.00 | 0.00 | 0.00 | 100 | 1007.8 |
| 20260509163005 | 72 | 250 | 16.0 | 23.0 | 0.00 | 0.00 | 0.00 | 100 | 1007.8 |
| 20260509162005 | 72 | 275 | 17.0 | 24.0 | 0.00 | 0.00 | 0.00 | 100 | 1007.8 |
| 20260509161504 | 72 | 268 | 15.0 | 20.0 | 0.00 | 0.00 | 0.00 | 100 | 1007.8 |
| 20260509160505 | 71 | 279 | 16.0 | 24.0 | 0.00 | 0.00 | 0.00 | 100 | 1007.9 |
| 20260509160005 | 71 | 289 | 16.0 | 23.0 | 0.00 | 0.00 | 0.00 | 100 | 1008.0 |
| 20260509155504 | 72 | 286 | 22.0 | 28.0 | 0.00 | 0.00 | 0.00 | 100 | 1007.9 |
| 20260509154505 | 72 | 276 | 20.0 | 26.0 | 0.00 | 0.00 | 0.00 | 100 | 1008.0 |
| 20260509154005 | 71 | 289 | 19.0 | 35.0 | 0.00 | 0.00 | 0.00 | 100 | 1008.0 |
| 20260509153504 | 71 | 283 | 20.0 | 29.0 | 0.00 | 0.00 | 0.00 | 100 | 1008.0 |
| 20260509152005 | 71 | 272 | 20.0 | 28.0 | 0.00 | 0.00 | 0.00 | 100 | 1007.7 |
| 20260509151505 | 71 | 264 | 14.0 | 23.0 | 0.00 | 0.00 | 0.00 | 100 | 1007.6 |
| 20260509150505 | 70 | 255 | 11.0 | 18.0 | 0.00 | 0.00 | 0.00 | 100 | 1007.5 |
| 20260509145505 | 70 | 277 | 13.0 | 18.0 | 0.00 | 0.00 | 0.00 | 100 | 1007.3 |
| 20260509144005 | 68 | 265 | 11.0 | 16.0 | 0.00 | 0.00 | 0.00 | 100 | 1007.5 |
| 20260509143005 | 67 | 239 | 5.0 | 12.0 | 0.00 | 0.00 | 0.00 | 100 | 1007.5 |
| 20260509142004 | 66 | 273 | 7.0 | 10.0 | 0.00 | 0.00 | 0.00 | 100 | 1007.6 |
| 20260509141505 | 66 | 272 | 7.0 | 12.0 | 0.00 | 0.00 | 0.00 | 100 | 1007.6 |
| 20260509141004 | 65 | 256 | 5.0 | 8.0 | 0.00 | 0.00 | 0.00 | 100 | 1007.4 |
| 20260509134504 | 61 | 260 | 3.0 | 7.0 | 0.00 | 0.00 | 0.00 | 100 | 1007.7 |
| 20260509134004 | 60 | 248 | 2.0 | 5.0 | 0.00 | 0.00 | 0.00 | 100 | 1007.5 |
| 20260509132005 | 57 | 238 | 5.0 | 8.0 | 0.00 | 0.00 | 0.00 | 100 | 1007.2 |
| 20260509131004 | 56 | 217 | 3.0 | 5.0 | 0.00 | 0.00 | 0.00 | 100 | 1007.2 |
| 20260509130505 | 55 | 235 | 3.0 | 5.0 | 0.00 | 0.00 | 0.00 | 100 | 1007.1 |
| 20260509125004 | 53 | 211 | 5.0 | 5.0 | 0.00 | 0.00 | 0.00 | 100 | 1007.0 |
| 20260509124505 | 53 | 207 | 3.0 | 3.0 | 0.00 | 0.00 | 0.00 | 100 | 1007.0 |
| 20260509124005 | 52 | 188 | 3.0 | 5.0 | 0.00 | 0.00 | 0.00 | 100 | 1007.0 |
| 20260509122504 | 50 | 202 | 1.0 | 2.0 | 0.00 | 0.00 | 0.00 | 100 | 1007.0 |
| 20260509121004 | 49 | 211 | 1.0 | 1.0 | 0.00 | 0.00 | 0.00 | 100 | 1006.8 |
| 20260509120504 | 48 | 211 | 0.0 | 2.0 | 0.00 | 0.00 | 0.00 | 100 | 1006.8 |
| 20260509115504 | 48 | 211 | 0.0 | 2.0 | 0.00 | 0.00 | 0.00 | 100 | 1006.7 |
| 20260509115005 | 48 | 211 | 0.0 | 2.0 | 0.00 | 0.00 | 0.00 | 100 | 1006.7 |
| 20260509113504 | 47 | 198 | 1.0 | 2.0 | 0.00 | 0.00 | 0.00 | 100 | 1006.7 |
| 20260509112505 | 47 | 198 | 1.0 | 1.0 | 0.00 | 0.00 | 0.00 | 100 | 1006.5 |
| 20260509111504 | 47 | 198 | 1.0 | 2.0 | 0.00 | 0.00 | 0.00 | 100 | 1006.5 |
| 20260509110504 | 47 | 198 | 3.0 | 3.0 | 0.00 | 0.00 | 0.00 | 100 | 1006.3 |
| 20260509105004 | 48 | 232 | 2.0 | 2.0 | 0.00 | 0.00 | 0.00 | 100 | 1006.4 |
| 20260509104004 | 49 | 232 | 2.0 | 2.0 | 0.00 | 0.00 | 0.00 | 100 | 1006.3 |
| 20260509103503 | 49 | 242 | 2.0 | 2.0 | 0.00 | 0.00 | 0.00 | 100 | 1006.4 |
| 20260509103004 | 49 | 242 | 1.0 | 2.0 | 0.00 | 0.00 | 0.00 | 100 | 1006.4 |
| 20260509102504 | 49 | 242 | 1.0 | 2.0 | 0.00 | 0.00 | 0.00 | 100 | 1006.4 |
| 20260509102004 | 49 | 242 | 2.0 | 2.0 | 0.00 | 0.00 | 0.00 | 100 | 1006.4 |
| 20260509095504 | 50 | 232 | 2.0 | 3.0 | 0.00 | 0.00 | 0.00 | 100 | 1006.3 |
| 20260509094004 | 50 | 244 | 3.0 | 3.0 | 0.00 | 0.00 | 0.00 | 100 | 1006.3 |
| 20260509092504 | 50 | 236 | 3.0 | 5.0 | 0.00 | 0.00 | 0.00 | 100 | 1006.2 |
| 20260509091504 | 50 | 244 | 3.0 | 3.0 | 0.00 | 0.00 | 0.00 | 100 | 1006.6 |
| 20260509091004 | 50 | 236 | 3.0 | 3.0 | 0.00 | 0.00 | 0.00 | 100 | 1006.5 |
| 20260509090004 | 50 | 225 | 2.0 | 3.0 | 0.00 | 0.00 | 0.00 | 100 | 1006.5 |
| 20260509085504 | 51 | 244 | 2.0 | 3.0 | 0.00 | 0.00 | 0.00 | 100 | 1006.5 |
| 20260509084004 | 51 | 271 | 2.0 | 2.0 | 0.00 | 0.00 | 0.00 | 100 | 1006.2 |
| 20260509083504 | 51 | 270 | 1.0 | 3.0 | 0.00 | 0.00 | 0.00 | 100 | 1006.0 |
| 20260509082004 | 51 | 210 | 3.0 | 5.0 | 0.00 | 0.00 | 0.00 | 100 | 1006.0 |
| 20260509080004 | 51 | 199 | 3.0 | 3.0 | 0.00 | 0.00 | 0.00 | 100 | 1006.2 |
| 20260509075504 | 52 | 196 | 3.0 | 3.0 | 0.00 | 0.00 | 0.00 | 100 | 1006.3 |
| 20260509073004 | 52 | 195 | 1.0 | 2.0 | 0.00 | 0.00 | 0.00 | 100 | 1006.4 |
| 20260509065504 | 53 | 138 | 1.0 | 2.0 | 0.00 | 0.00 | 0.00 | 100 | 1006.7 |
| 20260509065004 | 54 | 197 | 0.0 | 3.0 | 0.00 | 0.00 | 0.00 | 100 | 1006.6 |
| 20260509064504 | 54 | 190 | 1.0 | 2.0 | 0.00 | 0.00 | 0.00 | 100 | 1006.7 |
| 20260509064004 | 54 | 215 | 0.0 | 3.0 | 0.00 | 0.00 | 0.00 | 100 | 1006.7 |
| 20260509063004 | 54 | 208 | 2.0 | 3.0 | 0.00 | 0.00 | 0.00 | 100 | 1006.8 |
| 20260509062503 | 54 | 203 | 3.0 | 6.0 | 0.00 | 0.00 | 0.00 | 100 | 1006.8 |
| 20260509060004 | 55 | 193 | 5.0 | 7.0 | 0.00 | 0.00 | 0.00 | 100 | 1006.7 |
| 20260509055004 | 55 | 211 | 3.0 | 8.0 | 0.00 | 0.00 | 0.00 | 100 | 1006.7 |
| 20260509054504 | 55 | 207 | 3.0 | 7.0 | 0.00 | 0.00 | 0.00 | 100 | 1006.7 |
| 20260509053503 | 55 | 199 | 5.0 | 9.0 | 0.00 | 0.00 | 0.00 | 100 | 1006.7 |
| 20260509053004 | 55 | 204 | 6.0 | 9.0 | 0.00 | 0.00 | 0.00 | 100 | 1006.7 |
| 20260509052004 | 56 | 196 | 6.0 | 12.0 | 0.00 | 0.00 | 0.00 | 100 | 1006.8 |
| 20260509051504 | 56 | 194 | 7.0 | 10.0 | 0.00 | 0.00 | 0.00 | 100 | 1006.7 |
| 20260509051003 | 56 | 187 | 6.0 | 9.0 | 0.00 | 0.00 | 0.00 | 100 | 1006.9 |
| 20260509050003 | 57 | 181 | 6.0 | 12.0 | 0.00 | 0.00 | 0.00 | 100 | 1007.0 |
| 20260509045004 | 57 | 179 | 6.0 | 12.0 | 0.00 | 0.00 | 0.00 | 100 | 1007.1 |
| 20260509042504 | 59 | 194 | 7.0 | 14.0 | 0.00 | 0.00 | 0.00 | 100 | 1007.3 |
| 20260509042004 | 59 | 194 | 8.0 | 12.0 | 0.00 | 0.00 | 0.00 | 100 | 1007.4 |
| 20260509041503 | 59 | 207 | 7.0 | 12.0 | 0.00 | 0.00 | 0.00 | 100 | 1007.5 |
| 20260509040506 | 59 | 197 | 9.0 | 12.0 | 0.00 | 0.00 | 0.00 | 100 | 1007.5 |
| 20260509035505 | 60 | 206 | 5.0 | 12.0 | 0.00 | 0.00 | 0.00 | 100 | 1007.7 |
| 20260509035006 | 60 | 209 | 6.0 | 12.0 | 0.00 | 0.00 | 0.00 | 100 | 1007.8 |
| 20260509034505 | 60 | 210 | 7.0 | 12.0 | 0.00 | 0.00 | 0.00 | 100 | 1007.8 |
| 20260509034005 | 60 | 215 | 6.0 | 12.0 | 0.00 | 0.00 | 0.00 | 100 | 1007.7 |
| 20260509031006 | 61 | 201 | 9.0 | 14.0 | 0.00 | 0.00 | 0.00 | 100 | 1007.2 |
| 20260509030006 | 61 | 198 | 11.0 | 18.0 | 0.00 | 0.00 | 0.00 | 100 | 1007.1 |
| 20260509025005 | 61 | 190 | 12.0 | 20.0 | 0.00 | 0.00 | 0.00 | 100 | 1006.8 |
| 20260509023506 | 62 | 193 | 10.0 | 16.0 | 0.00 | 0.00 | 0.00 | 100 | 1006.6 |
| 20260509023005 | 62 | 186 | 10.0 | 15.0 | 0.00 | 0.00 | 0.00 | 100 | 1006.5 |
| 20260509022505 | 62 | 188 | 7.0 | 13.0 | 0.00 | 0.00 | 0.00 | 100 | 1006.3 |
| 20260509021012 | 63 | 201 | 7.0 | 12.0 | 0.00 | 0.00 | 0.00 | 100 | 1006.4 |
| 20260509015506 | 64 | 189 | 7.0 | 10.0 | 0.00 | 0.00 | 0.00 | 100 | 1006.2 |
| 20260509015006 | 64 | 193 | 7.0 | 12.0 | 0.00 | 0.00 | 0.00 | 100 | 1006.2 |